Regional Weather Roundup
Issued by NWS Upton, NY

Current Version | Previous Version | Graphics & Text | Print | Product List | Glossary Off
Versions: 1 2 3 4 5 6 7 8 9 10 11 12 13 14 15 16 17 18 19 20 21 22 23 24 25 26 27 28 29 30 31 32 33 34 35 36 37 38 39 40 41 42 43 44 45 46 47 48 49

000
ASUS41 KOKX 141404
RWROKX

REGIONAL WEATHER ROUNDUP
NATIONAL WEATHER SERVICE NEW YORK NY
900 AM EST SUN FEB 14 2016

NOTE: "FAIR" INDICATES FEW OR NO CLOUDS BELOW 12,000 FEET WITH NO
SIGNIFICANT WEATHER AND/OR OBSTRUCTIONS TO VISIBILITY.

NYZ071-072-176-178-NJZ106-104-141500-
NEW YORK CITY METRO AREA


CITY           SKY/WX    TMP DP  RH WIND       PRES   REMARKS
CENTRAL PARK   SUNNY      0 -19  40 VRB7G23   30.54R WCI -13
LAGUARDIA APRT MOSUNNY    3 -11  52 NW20      30.53R WCI -18
KENNEDY INTL   MOSUNNY    3 -18  37 NW20      30.54R WCI -18
NEWARK/LIBERTY MOSUNNY    3 -17  39 W18       30.55R WCI -17
BRNX BOT. GARD   N/A      3 -17  39 NW7       30.51F WCI  -9
TETERBORO      SUNNY      2 -18  38 NW17G26   30.54R WCI -18
$$

NYZ177-179-078>081-141500-
LONG ISLAND NEW YORK

CITY           SKY/WX    TMP DP  RH WIND       PRES   REMARKS
FARMINGDALE    SUNNY      4 -14  43 NW12      30.51R WCI -12
ISLIP          MOSUNNY    1 -13  51 NW13G24   30.48R WCI -17
SHIRLEY        SUNNY      0 -12  57 N16G25    30.49R WCI -20
RIVERHEAD        N/A      1  -9  60 NW7       30.46R WCI -11
WESTHAMPTON    NOT AVBL
EAST HAMPTON   MOSUNNY   -2 -17  50 NW17G25   30.44S WCI -24
MONTAUK POINT    N/A      0  -8  69 NW20G29   30.43R WCI -22
$$

NYZ052-065-067-141500-
HUDSON VALLEY

CITY           SKY/WX    TMP DP  RH WIND       PRES   REMARKS
WHITE PLAINS   SUNNY     -1 -17  46 NW18      30.45R WCI -22
NEWBURGH       SUNNY     -4 -17  54 CALM      30.48R
MONTGOMERY     SUNNY     -2 -20  42 W8        30.48R WCI -17
POUGHKEEPSIE   SUNNY     -3 -21  42 VRB7      30.53R WCI -16
ALBANY         SUNNY    -10 -24  50 NW7       30.55R WCI -25
$$

NJZ001-105-106-008-010-013-015-019>022-104-141500-
NEW JERSEY

CITY           SKY/WX    TMP DP  RH WIND       PRES   REMARKS
NEWARK/LIBERTY MOSUNNY    3 -17  39 W18       30.55R WCI -17
TETERBORO      SUNNY      2 -18  38 NW17G26   30.54R WCI -18
CALDWELL       SUNNY      0 -20  38 NW10G22   30.55R WCI -16
MORRISTOWN     SUNNY      1 -15  46 N10G24    30.55R WCI -14
SOMERVILLE     SUNNY      3 -16  40 NW13      30.54R WCI -14
SUSSEX         SUNNY     -3 -17  51 NW13G21   30.49R WCI -22
ANDOVER          N/A     -2 -18  46 N14G21    30.49R WCI -21
TRENTON        SUNNY      6 -12  43 NW10      30.53R WCI  -9
MILLVILLE      SUNNY     13  -7  40 NW13G23   30.55R WCI  -2
ATLANTIC CITY  SUNNY     11 -11  36 N18       30.53R WCI  -7
WRIGHTSTOWN    SUNNY      7  -9  47 NW14      30.52S WCI -10
TOMS RIVER     SUNNY      7 -15  36 NW15G26   30.54R WCI -11
BELMAR         SUNNY      5 -18  33 NW16G25   30.52R WCI -14
$$

PAZ047>061-062-071-141500-
EASTERN PENNSYLVANIA

CITY           SKY/WX    TMP DP  RH WIND       PRES   REMARKS
PHILADELPHIA   MOSUNNY   10 -12  36 NW16G24   30.56R WCI  -7
ALLENTOWN      SUNNY      4 -11  50 N12       30.52R WCI -12
SCRANTON       SUNNY     -5 -15  62 N9        30.47R WCI -22
$$

CTZ002-004>006-009-010-012-RIZ004-006-007-MAZ004-011-015-141500-
SOUTHERN NEW ENGLAND
 IN CT

CITY           SKY/WX    TMP DP  RH WIND       PRES   REMARKS
BRADLEY INTL   SUNNY     -8 -25  43 NW9       30.45R WCI -25
HARTFORD       SUNNY     -6 -23  43 NW9       30.49R WCI -23
DANBURY        SUNNY     -7 -24  43 NW12G20   30.47R WCI -26
WTRBRY/OXFORD  SUNNY     -9 -29  37 N17G29    30.40R WCI -33
BRIDGEPORT     SUNNY     -3 -21  42 NW12G24   30.51R WCI -21
MERIDEN        MIX PCPN  -5 -24  39 NW14      30.46R WCI -25
NEW HAVEN      SUNNY     -4 -22  41 NW14G22   30.48R WCI -24
CHESTER        FAIR      -6 -24  41 NW12      30.40R WCI -24
GROTON         SUNNY     -5  -9  83 NW16G28   30.43R WCI -27
WILLIMANTIC    MOSUNNY   -6 -24  41 NW17G23   30.42R WCI -28

 IN RI

CITY           SKY/WX    TMP DP  RH WIND       PRES   REMARKS
PROVIDENCE     SUNNY     -5 -23  41 N15G22    30.40R WCI -26
BLOCK ISLAND   PTSUNNY   -2  -8  78 NW16G26   30.38R WCI -23
WESTERLY       SUNNY     -5 -23  41 NW10G21   30.42R WCI -23

 IN MA

CITY           SKY/WX    TMP DP  RH WIND       PRES   REMARKS
BOSTON         SUNNY     -5 -21  46 NW18G29   30.37R WCI -28
WORCESTER      SUNNY    -11 -25  50 NW20G30   30.26R WCI -36
WESTFIELD      MOSUNNY   -8 -25  43 N9        30.45R WCI -25
PROVINCETOWN   SNOW       3  -2  79 NW22G32   30.31R VSB 1/2 WCI -19
NANTUCKET      CLOUDY     1  -6  72 NW20      30.32R HAZE    WCI -20
$$

ANZ330-335-338-340-345-350-353-355-141500-
COASTAL MARINE OBSERVATIONS


STATION/POSITION TIME  SKY/WX   TEMP    WIND        PRES    VSBY  WAVE
                                AIR SEA DIR/SP/G                  HT/PER
                 (UTC)          (F)     (DEG/KT/KT) (MB)    (MI)  (FT/S)
NY HARB ENTRANCE 1250             7 44  310/ 25/ 31 1032.4          4/ 5
4S FIRE IS       NOT AVBL
20S FIRE ISLAND  1250             7 40  330/ 23/ 29 1031.3          6/ 6
GREAT SOUTH BAY  NOT AVBL
23SW MTP         1350             4 43  320/ 23/ 29 1029.8          8/ 6
HUDSON CANYON    1250            14 48              1029.5         10/ 8
KINGS POINT      1300             0 31  360/ 16/ 23 1032.7
EXECUTION ROCKS  NOT AVBL
CENTRAL LI SOUND 1300            -1     310/ 19/ 25   N/A           4/ 4
EASTERN LI SOUND 1300             0 39  300/ 17/ 27   N/A
ROBBINS REEF     1300             0     320/ 13/ 19 1033.1
$$


>>>>>>>>>>>>>>>>>>>>>>>>>>>> KEY <<<<<<<<<<<<<<<<<<<<<<<<<<<
>                                                          <
>     SKY/WX - SKY CONDITION/PRESENT WEATHER               <
>     TMP    - TEMPERATURE IN FAHRENHEIT                   <
>     DP     - DEWPOINT IN FAHRENHEIT                      <
>     RH     - RELATIVE HUMIDITY IN PERCENT                <
>     WIND   - DIRECTION AND SPEED IN MPH                  <
>     PRES   - MEAN SEA LEVEL PRESSURE IN INCHES OF HG     <
>     WCI    - WIND CHILL INDEX                            <
>     VSB    - VISIBILITY IN MILES                         <
>     HX     - HEAT INDEX                                  <
>     TC     - TEMPERATURE IN CELSIUS                      <
>     VRB    - VARIABLE WIND DIRECTION                     <
>                                                          <
>>>>>>>>>>>>>>>>>>>>>>>>>>>> KEY <<<<<<<<<<<<<<<<<<<<<<<<<<<





USA.gov is the U.S. government's official web portal to all federal, state and local government web resources and services.